contact:dominique.lefevre@mio.osupytheas.fr, maurice.libes@osupytheas.fr
Project:EMSO Ligure-ouest http://www.emso-fr.org/EMSO-France
Sensor Aquadopp, line 13 Serial AQD14315 
DOI : "https://doi.org/10.17882/74513; https://doi.org/10.17882/83244" 
Title:EMSO Ligure Ouest : Data ligne ALBATROSS capteur AQUADOPP - deploiement 2021
Id,Date,Profondeur,Latitude,Longitude,X_East,Y_North,Z_Up,Amplitude_X,Amplitude_Y,Amplitude_Z,Batterie,SoundSpeed,Heading,Pitch,Roll,Pressure,Temperature,Speed,Direction
, , m, degrees North, degrees East, m.s-1, m.s-1,m.s-1, 1, 1, 1, Volt, m.s-1, degree, degree, degree, dbar, degree_C, m.s-1, degree
07,2021-07-20T21:30:00,1500.0,42.79,6.0312,0.024,-0.029,0.001,54.0,58.0,55.0,13.3,1504.1,246.3,-0.2,-0.5,1473.387,13.13,0.037,140.4
07,2021-07-20T22:00:00,1500.0,42.79,6.0312,0.02,-0.023,-0.003,55.0,56.0,56.0,13.3,1504.1,245.5,0.2,-0.5,1473.422,13.13,0.03,139.0
07,2021-07-20T22:30:00,1500.0,42.79,6.0312,0.016,-0.034,-0.018,57.0,56.0,55.0,13.3,1504.1,244.6,0.2,-0.4,1473.399,13.13,0.037,154.8
07,2021-07-20T23:00:00,1500.0,42.79,6.0312,0.021,-0.051,-0.001,57.0,54.0,55.0,13.3,1504.2,245.1,-0.2,-0.5,1473.385,13.14,0.055,157.6
07,2021-07-20T23:30:00,1500.0,42.79,6.0312,0.021,-0.042,0.001,55.0,55.0,54.0,13.3,1504.2,242.3,0.0,-0.4,1473.371,13.14,0.046,153.4
07,2021-07-21T00:00:00,1500.0,42.79,6.0312,0.026,-0.036,0.006,55.0,56.0,55.0,13.3,1504.2,240.6,0.2,-0.2,1473.365,13.14,0.044,144.2
07,2021-07-21T00:30:00,1500.0,42.79,6.0312,0.013,-0.035,0.012,55.0,54.0,55.0,13.3,1504.1,237.9,-0.2,-0.5,1473.412,13.13,0.037,159.6
07,2021-07-21T01:00:00,1500.0,42.79,6.0312,0.023,-0.03,0.002,53.0,54.0,53.0,13.3,1504.1,238.3,-0.1,-0.5,1473.411,13.13,0.037,142.5
07,2021-07-21T01:30:00,1500.0,42.79,6.0312,0.01,-0.02,-0.011,52.0,57.0,54.0,13.3,1504.1,233.4,0.1,-0.3,1473.403,13.13,0.022,153.4
07,2021-07-21T02:00:00,1500.0,42.79,6.0312,0.004,-0.029,-0.01,54.0,55.0,52.0,13.3,1504.2,237.1,0.1,-0.5,1473.441,13.14,0.029,172.2
07,2021-07-21T02:30:00,1500.0,42.79,6.0312,0.012,-0.035,0.005,53.0,53.0,53.0,13.3,1504.2,235.0,0.1,-0.4,1473.443,13.14,0.037,161.1
07,2021-07-21T03:00:00,1500.0,42.79,6.0312,0.016,-0.02,0.003,53.0,53.0,55.0,13.3,1504.2,235.7,0.0,-0.2,1473.454,13.14,0.025,141.3
07,2021-07-21T03:30:00,1500.0,42.79,6.0312,0.009,-0.031,0.023,53.0,52.0,52.0,13.3,1504.2,235.0,0.1,-0.4,1473.456,13.14,0.032,163.8
07,2021-07-21T04:00:00,1500.0,42.79,6.0312,0.016,-0.037,0.008,53.0,56.0,52.0,13.3,1504.1,237.6,0.0,-0.5,1473.451,13.13,0.04,156.6
07,2021-07-21T04:30:00,1500.0,42.79,6.0312,0.014,-0.023,0.008,53.0,54.0,53.0,13.2,1504.1,238.0,0.0,-0.2,1473.47,13.13,0.026,148.7
07,2021-07-21T05:00:00,1500.0,42.79,6.0312,0.019,-0.024,0.003,53.0,54.0,54.0,13.3,1504.1,243.7,-0.3,-0.2,1473.454,13.13,0.03,141.6
07,2021-07-21T05:30:00,1500.0,42.79,6.0312,0.015,-0.027,0.008,53.0,53.0,55.0,13.3,1504.1,245.4,-0.1,-0.4,1473.465,13.13,0.03,150.9
07,2021-07-21T06:00:00,1500.0,42.79,6.0312,0.002,-0.037,0.005,52.0,53.0,51.0,13.3,1504.1,246.9,0.1,-0.2,1473.438,13.13,0.037,176.9
07,2021-07-21T06:30:00,1500.0,42.79,6.0312,0.007,-0.035,-0.002,52.0,52.0,50.0,13.3,1504.1,249.7,0.0,-0.2,1473.453,13.13,0.035,168.7
07,2021-07-21T07:00:00,1500.0,42.79,6.0312,0.0,-0.033,0.003,53.0,52.0,50.0,13.3,1504.1,250.9,0.0,-0.5,1473.438,13.13,0.033,180.0
07,2021-07-21T07:30:00,1500.0,42.79,6.0312,0.013,-0.035,0.008,50.0,53.0,53.0,13.3,1504.1,256.4,0.2,-0.4,1473.415,13.12,0.037,159.6
07,2021-07-21T08:00:00,1500.0,42.79,6.0312,0.007,-0.023,-0.02,50.0,52.0,51.0,13.3,1504.1,258.9,0.1,-0.3,1473.395,13.12,0.024,163.1
07,2021-07-21T08:30:00,1500.0,42.79,6.0312,0.005,-0.028,0.016,56.0,56.0,54.0,13.3,1504.1,260.3,0.0,-0.5,1473.372,13.13,0.028,169.9
07,2021-07-21T09:00:00,1500.0,42.79,6.0312,-0.001,-0.034,0.002,57.0,57.0,57.0,13.3,1504.1,255.6,-0.1,-0.4,1473.332,13.13,0.034,181.7
07,2021-07-21T09:30:00,1500.0,42.79,6.0312,0.009,-0.021,0.005,57.0,57.0,58.0,13.3,1504.1,255.6,0.0,-0.5,1473.331,13.13,0.022,156.8
07,2021-07-21T10:00:00,1500.0,42.79,6.0312,0.009,-0.012,-0.014,57.0,58.0,56.0,13.3,1504.1,252.4,0.1,-0.4,1473.309,13.13,0.015,143.1
07,2021-07-21T10:30:00,1500.0,42.79,6.0312,0.02,-0.023,0.016,57.0,57.0,57.0,13.3,1504.1,250.8,0.1,-0.3,1473.3,13.13,0.03,139.0
07,2021-07-21T11:00:00,1500.0,42.79,6.0312,0.033,-0.025,-0.021,57.0,58.0,59.0,13.3,1504.1,244.3,-0.2,-0.3,1473.29,13.13,0.041,127.1
07,2021-07-21T11:30:00,1500.0,42.79,6.0312,0.025,-0.023,0.003,56.0,59.0,59.0,13.2,1504.1,243.0,0.0,-0.4,1473.297,13.13,0.033,132.6
07,2021-07-21T12:00:00,1500.0,42.79,6.0312,0.024,-0.024,0.005,56.0,58.0,56.0,13.3,1504.1,244.1,-0.1,-0.3,1473.279,13.13,0.033,135.0
07,2021-07-21T12:30:00,1500.0,42.79,6.0312,0.031,-0.029,-0.004,55.0,55.0,58.0,13.3,1504.1,240.5,-0.3,-0.6,1473.336,13.13,0.042,133.1
07,2021-07-21T13:00:00,1500.0,42.79,6.0312,0.036,-0.03,-0.005,56.0,56.0,60.0,13.3,1504.1,241.9,0.0,-0.5,1473.332,13.13,0.046,129.8
07,2021-07-21T13:30:00,1500.0,42.79,6.0312,0.026,-0.029,0.007,57.0,58.0,57.0,13.3,1504.1,244.6,-0.2,-0.3,1473.323,13.13,0.038,138.1
07,2021-07-21T14:00:00,1500.0,42.79,6.0312,0.025,-0.039,0.008,57.0,59.0,59.0,13.3,1504.1,246.8,-0.1,-0.4,1473.33,13.13,0.046,147.3
07,2021-07-21T14:30:00,1500.0,42.79,6.0312,0.02,-0.041,-0.001,58.0,57.0,58.0,13.2,1504.1,247.6,-0.1,-0.6,1473.359,13.13,0.045,154.0
07,2021-07-21T15:00:00,1500.0,42.79,6.0312,0.016,-0.046,-0.014,58.0,59.0,58.0,13.3,1504.1,251.1,0.1,-0.5,1473.413,13.13,0.048,160.8
07,2021-07-21T15:30:00,1500.0,42.79,6.0312,0.01,-0.031,0.005,60.0,60.0,58.0,13.3,1504.1,252.8,0.1,-0.6,1473.453,13.13,0.032,162.1
07,2021-07-21T16:00:00,1500.0,42.79,6.0312,0.017,-0.029,-0.01,56.0,56.0,55.0,13.2,1504.1,258.5,0.1,-0.4,1473.432,13.13,0.033,149.6
07,2021-07-21T16:30:00,1500.0,42.79,6.0312,0.004,-0.043,0.01,55.0,58.0,56.0,13.3,1504.1,259.1,0.2,-0.3,1473.476,13.13,0.043,174.7
07,2021-07-21T17:00:00,1500.0,42.79,6.0312,-0.005,-0.032,-0.014,56.0,57.0,56.0,13.3,1504.1,261.7,-0.2,-0.5,1473.469,13.13,0.032,188.9
07,2021-07-21T17:30:00,1500.0,42.79,6.0312,0.007,-0.021,0.004,55.0,55.0,56.0,13.3,1504.1,258.6,0.1,-0.2,1473.477,13.13,0.022,161.6
07,2021-07-21T18:00:00,1500.0,42.79,6.0312,0.011,-0.041,0.007,56.0,57.0,55.0,13.2,1504.1,257.5,0.0,-0.5,1473.46,13.13,0.042,165.0
07,2021-07-21T18:30:00,1500.0,42.79,6.0312,0.004,-0.034,0.001,56.0,56.0,56.0,13.3,1504.1,255.5,0.1,-0.5,1473.472,13.13,0.034,173.3
07,2021-07-21T19:00:00,1500.0,42.79,6.0312,0.009,-0.032,-0.013,57.0,57.0,58.0,13.2,1504.1,247.9,-0.4,-0.5,1473.462,13.13,0.033,164.3
07,2021-07-21T19:30:00,1500.0,42.79,6.0312,0.002,-0.044,0.006,57.0,56.0,56.0,13.3,1504.1,239.6,0.0,-0.4,1473.425,13.13,0.044,177.4
07,2021-07-21T20:00:00,1500.0,42.79,6.0312,0.01,-0.03,-0.005,58.0,57.0,58.0,13.3,1504.2,231.4,-0.2,-0.2,1473.494,13.14,0.031,161.6
07,2021-07-21T20:30:00,1500.0,42.79,6.0312,0.015,-0.029,-0.011,57.0,59.0,57.0,13.3,1504.2,240.4,-0.1,-0.3,1473.438,13.14,0.032,152.6
07,2021-07-21T21:00:00,1500.0,42.79,6.0312,0.014,-0.029,-0.01,58.0,61.0,58.0,13.2,1504.2,237.6,-0.2,-0.1,1473.416,13.14,0.032,154.2
